Time,TemperatureF,DewpointF,PressureIn,WindDirection,WindDirectionDegrees,WindSpeedMPH,WindSpeedGustMPH,Humidity,HourlyPrecipIn,Conditions,Clouds,dailyrainin,SolarRadiationWatts/m^2,SoftwareType,DateUTC
2013-06-25 00:00:00,53.0,49.0,-100.00,South,187,1.0,2.0,86,-99.99,,,0.00,0.000000,,2013-06-25 07:00:00,
2013-06-25 00:43:00,53.0,49.0,-100.00,South,187,1.0,2.0,86,-99.99,,,0.00,0.000000,,2013-06-25 07:43:00,
2013-06-25 00:52:00,53.0,49.0,-100.00,South,187,1.0,2.0,86,-99.99,,,0.00,0.000000,,2013-06-25 07:52:00,
2013-06-25 01:00:00,53.0,49.0,-100.00,SSW,197,1.0,3.0,84,-99.99,,,0.00,0.000000,,2013-06-25 08:00:00,
2013-06-25 01:43:00,53.0,49.0,-100.00,SSW,197,1.0,3.0,84,-99.99,,,0.00,0.000000,,2013-06-25 08:43:00,
2013-06-25 01:53:00,53.0,49.0,-100.00,SSW,197,1.0,3.0,84,-99.99,,,0.00,0.000000,,2013-06-25 08:53:00,
2013-06-25 02:00:00,54.0,48.0,-100.00,SSW,201,2.0,5.0,80,-99.99,,,0.00,0.000000,,2013-06-25 09:00:00,
2013-06-25 02:43:00,54.0,48.0,-100.00,SSW,201,2.0,5.0,80,-99.99,,,0.00,0.000000,,2013-06-25 09:43:00,
2013-06-25 02:53:00,54.0,48.0,-100.00,SSW,201,2.0,5.0,80,-99.99,,,0.00,0.000000,,2013-06-25 09:53:00,
2013-06-25 03:00:00,54.0,46.0,-100.00,SW,218,2.0,6.0,76,-99.99,,,0.00,0.000000,,2013-06-25 10:00:00,
2013-06-25 03:42:00,54.0,46.0,-100.00,SW,218,2.0,6.0,76,-99.99,,,0.00,0.000000,,2013-06-25 10:42:00,
2013-06-25 03:52:00,54.0,46.0,-100.00,SW,218,2.0,6.0,76,-99.99,,,0.00,0.000000,,2013-06-25 10:52:00,
2013-06-25 04:00:00,52.0,46.0,-100.00,SSW,197,2.0,4.0,78,-99.99,,,0.00,0.000000,,2013-06-25 11:00:00,
2013-06-25 04:43:00,52.0,46.0,-100.00,SSW,197,2.0,4.0,78,-99.99,,,0.00,0.000000,,2013-06-25 11:43:00,
2013-06-25 04:52:00,52.0,46.0,-100.00,SSW,197,2.0,4.0,78,-99.99,,,0.00,0.000000,,2013-06-25 11:52:00,
2013-06-25 05:00:00,52.0,46.0,-100.00,South,191,1.0,3.0,79,-99.99,,,0.00,0.000000,,2013-06-25 12:00:00,
2013-06-25 05:43:00,52.0,46.0,-100.00,South,191,1.0,3.0,79,-99.99,,,0.00,0.000000,,2013-06-25 12:43:00,
2013-06-25 05:55:00,52.0,46.0,-100.00,South,191,1.0,3.0,79,-99.99,,,0.00,0.000000,,2013-06-25 12:55:00,
2013-06-25 06:00:00,53.0,46.0,-100.00,South,184,1.0,4.0,77,-99.99,,,0.00,11.620000,,2013-06-25 13:00:00,
2013-06-25 06:53:00,53.0,46.0,-100.00,South,184,1.0,4.0,77,-99.99,,,0.00,11.620000,,2013-06-25 13:53:00,
2013-06-25 07:00:00,53.0,48.0,-100.00,SSE,153,1.0,2.0,83,-99.99,,,0.00,52.419998,,2013-06-25 14:00:00,
2013-06-25 07:43:00,53.0,48.0,-100.00,SSE,153,1.0,2.0,83,-99.99,,,0.00,52.419998,,2013-06-25 14:43:00,
2013-06-25 07:53:00,53.0,48.0,-100.00,SSE,153,1.0,2.0,83,-99.99,,,0.00,52.419998,,2013-06-25 14:53:00,
2013-06-25 08:00:00,54.0,48.0,-100.00,SSW,203,2.0,5.0,78,-99.99,,,0.00,87.050003,,2013-06-25 15:00:00,
2013-06-25 08:44:00,54.0,48.0,-100.00,SSW,203,2.0,5.0,78,-99.99,,,0.00,87.050003,,2013-06-25 15:44:00,
2013-06-25 08:53:00,54.0,48.0,-100.00,SSW,203,2.0,5.0,78,-99.99,,,0.00,87.050003,,2013-06-25 15:53:00,
2013-06-25 09:00:00,58.0,48.0,-100.00,SSW,198,4.0,10.0,68,-99.99,,,0.00,457.670013,,2013-06-25 16:00:00,
2013-06-25 09:44:00,58.0,48.0,-100.00,SSW,198,4.0,10.0,68,-99.99,,,0.00,457.670013,,2013-06-25 16:44:00,
2013-06-25 09:52:00,58.0,48.0,-100.00,SSW,198,4.0,10.0,68,-99.99,,,0.00,457.670013,,2013-06-25 16:52:00,
2013-06-25 10:00:00,59.0,44.0,-100.00,SSW,201,4.0,9.0,56,-99.99,,,0.00,202.690002,,2013-06-25 17:00:00,
2013-06-25 10:44:00,59.0,44.0,-100.00,SSW,201,4.0,9.0,56,-99.99,,,0.00,202.690002,,2013-06-25 17:44:00,
2013-06-25 10:53:00,59.0,44.0,-100.00,SSW,201,4.0,9.0,56,-99.99,,,0.00,202.690002,,2013-06-25 17:53:00,
2013-06-25 11:00:00,58.0,48.0,-100.00,WSW,246,1.0,4.0,67,-99.99,,,0.00,143.179993,,2013-06-25 18:00:00,
2013-06-25 11:44:00,58.0,48.0,-100.00,WSW,246,1.0,4.0,67,-99.99,,,0.00,143.179993,,2013-06-25 18:44:00,
2013-06-25 11:53:00,58.0,48.0,-100.00,WSW,246,1.0,4.0,67,-99.99,,,0.00,143.179993,,2013-06-25 18:53:00,
2013-06-25 12:00:00,62.0,51.0,-100.00,SSW,201,2.0,5.0,67,-99.99,,,0.00,775.190002,,2013-06-25 19:00:00,
2013-06-25 12:44:00,62.0,51.0,-100.00,SSW,201,2.0,5.0,67,-99.99,,,0.00,775.190002,,2013-06-25 19:44:00,
2013-06-25 12:54:00,62.0,51.0,-100.00,SSW,201,2.0,5.0,67,-99.99,,,0.00,775.190002,,2013-06-25 19:54:00,
2013-06-25 13:00:00,61.0,50.0,-100.00,SSW,200,3.0,8.0,67,-99.99,,,0.00,620.500000,,2013-06-25 20:00:00,
2013-06-25 13:42:00,61.0,50.0,-100.00,SSW,200,3.0,8.0,67,-99.99,,,0.00,620.500000,,2013-06-25 20:42:00,
2013-06-25 13:52:00,61.0,50.0,-100.00,SSW,200,3.0,8.0,67,-99.99,,,0.00,620.500000,,2013-06-25 20:52:00,
2013-06-25 14:00:00,60.0,48.0,-100.00,SSW,204,5.0,13.0,66,-99.99,,,0.00,557.039978,,2013-06-25 21:00:00,
2013-06-25 14:43:00,60.0,48.0,-100.00,SSW,204,5.0,13.0,66,-99.99,,,0.00,557.039978,,2013-06-25 21:43:00,
2013-06-25 14:53:00,60.0,48.0,-100.00,SSW,204,5.0,13.0,66,-99.99,,,0.00,557.039978,,2013-06-25 21:53:00,
2013-06-25 15:00:00,62.0,49.0,-100.00,SSW,210,3.0,8.0,62,-99.99,,,0.00,191.529999,,2013-06-25 22:00:00,
2013-06-25 15:42:00,62.0,49.0,-100.00,SSW,210,3.0,8.0,62,-99.99,,,0.00,191.529999,,2013-06-25 22:42:00,
2013-06-25 15:52:00,62.0,49.0,-100.00,SSW,210,3.0,8.0,62,-99.99,,,0.00,191.529999,,2013-06-25 22:52:00,
2013-06-25 16:00:00,63.0,48.0,-100.00,SW,214,4.0,9.0,57,-99.99,,,0.00,338.200012,,2013-06-25 23:00:00,
2013-06-25 16:43:00,63.0,48.0,-100.00,SW,214,4.0,9.0,57,-99.99,,,0.00,338.200012,,2013-06-25 23:43:00,
2013-06-25 16:52:00,63.0,48.0,-100.00,SW,214,4.0,9.0,57,-99.99,,,0.00,338.200012,,2013-06-25 23:52:00,
2013-06-25 18:00:00,61.0,44.0,-100.00,WSW,249,3.0,16.0,53,-99.99,,,0.00,111.919998,,2013-06-26 01:00:00,
2013-06-25 18:43:00,61.0,44.0,-100.00,WSW,249,3.0,16.0,53,-99.99,,,0.00,111.919998,,2013-06-26 01:43:00,
2013-06-25 18:53:00,61.0,44.0,-100.00,WSW,249,3.0,16.0,53,-99.99,,,0.00,111.919998,,2013-06-26 01:53:00,
2013-06-25 19:00:00,61.0,45.0,-100.00,West,265,2.0,7.0,56,-99.99,,,0.00,128.419998,,2013-06-26 02:00:00,
2013-06-25 19:43:00,61.0,45.0,-100.00,West,265,2.0,7.0,56,-99.99,,,0.00,128.419998,,2013-06-26 02:43:00,
2013-06-25 19:53:00,61.0,45.0,-100.00,West,265,2.0,7.0,56,-99.99,,,0.00,128.419998,,2013-06-26 02:53:00,
2013-06-25 20:00:00,59.0,44.0,-100.00,SSW,200,2.0,5.0,58,-99.99,,,0.00,35.209999,,2013-06-26 03:00:00,
2013-06-25 20:43:00,59.0,44.0,-100.00,SSW,200,2.0,5.0,58,-99.99,,,0.00,35.209999,,2013-06-26 03:43:00,
2013-06-25 20:52:00,59.0,44.0,-100.00,SSW,200,2.0,5.0,58,-99.99,,,0.00,35.209999,,2013-06-26 03:52:00,
2013-06-25 21:00:00,57.0,45.0,-100.00,SSW,204,1.0,3.0,64,-99.99,,,0.00,2.670000,,2013-06-26 04:00:00,
2013-06-25 21:43:00,57.0,45.0,-100.00,SSW,204,1.0,3.0,64,-99.99,,,0.00,2.670000,,2013-06-26 04:43:00,
2013-06-25 21:53:00,57.0,45.0,-100.00,SSW,204,1.0,3.0,64,-99.99,,,0.00,2.670000,,2013-06-26 04:53:00,
2013-06-25 22:00:00,56.0,46.0,-100.00,West,278,0.0,1.0,69,-99.99,,,0.00,0.000000,,2013-06-26 05:00:00,
2013-06-25 22:43:00,56.0,46.0,-100.00,West,278,0.0,1.0,69,-99.99,,,0.00,0.000000,,2013-06-26 05:43:00,
2013-06-25 22:52:00,56.0,46.0,-100.00,West,278,0.0,1.0,69,-99.99,,,0.00,0.000000,,2013-06-26 05:52:00,
2013-06-25 23:00:00,55.0,47.0,-100.00,South,177,1.0,2.0,74,-99.99,,,0.00,0.000000,,2013-06-26 06:00:00,
2013-06-25 23:43:00,55.0,47.0,-100.00,South,177,1.0,2.0,74,-99.99,,,0.00,0.000000,,2013-06-26 06:43:00,
2013-06-25 23:53:00,55.0,47.0,-100.00,South,177,1.0,2.0,74,-99.99,,,0.00,0.000000,,2013-06-26 06:53:00,